Christchurch, New Zealand

5:57 AM NZST on April 27, 2017 (GMT +1200)
Christchurch

Weather History for 93780 - January, 2014

Change the Weather History Date:

Monday, January 20, 2014

  Actual Average Record
Temperature  
Mean Temperature 56 °F -  
Max Temperature 62 °F 69 °F - ()
Min Temperature 51 °F 51 °F - ()
Degree Days  
Heating Degree Days 8    
Growing Degree Days 6 (Base 50)    
Moisture  
Dew Point 51 °F    
Average Humidity 78    
Maximum Humidity 100    
Minimum Humidity 59    
Precipitation  
Precipitation 0.00 in - - ()
Sea Level Pressure  
Sea Level Pressure 29.76 in    
Wind  
Wind Speed 10 mph ()    
Max Wind Speed 20 mph    
Max Gust Speed -    
Visibility 5.5 miles    
Events Rain    
T = Trace of Precipitation, MM = Missing Value Source: Averaged Metar Reports

Daily Weather History Graph

Daily Weather History Graph

Search for Another Location

Airport or City:

Trip Planner

Search our weather history database for the weather conditions in past years. The results will help you decide how hot, cold, wet, or windy it might be!

Date:

Astronomy

Jan. 20, 2014 Rise Set
Actual Time 6:13 AM NZDT 9:07 PM NZDT
Civil Twilight 5:39 AM NZDT 9:40 PM NZDT
Nautical Twilight 4:56 AM NZDT 10:23 PM NZDT
Astronomical Twilight 4:06 AM NZDT 11:13 PM NZDT
Moon 10:42 PM NZDT (1/20) 9:55 AM NZDT (1/20)
Length of Visible Light 16h 01m
Length of Day
14h 53m
Waning Gibbous, 88% of the Moon is Illuminated
Jan 20
Waning Gibbous
Jan 24
Last Quarter
Jan 31
New
Feb 7
First Quarter
Feb 15
Full

Hourly Weather History & Observations

Time (NZDT) Temp. Dew Point Humidity Pressure Visibility Wind Dir Wind Speed Gust Speed Precip Events Conditions
12:00 AM 57.2 °F 55.4 °F 94% 29.65 in 6.2 mi SW 11.5 mph - N/A   Unknown
12:30 AM 57.2 °F 53.6 °F 88% 29.68 in 6.2 mi SW 5.8 mph - N/A   Unknown
1:00 AM 57.2 °F 53.6 °F 88% 29.68 in 6.2 mi WSW 6.9 mph - N/A   Scattered Clouds
1:30 AM 55.4 °F 51.8 °F 88% 29.68 in 6.2 mi WSW 6.9 mph - N/A   Partly Cloudy
2:00 AM 55.4 °F 50.0 °F 82% 29.68 in 6.2 mi WSW 6.9 mph - N/A   Unknown
2:30 AM 53.6 °F 50.0 °F 88% 29.68 in 6.2 mi WNW 3.5 mph - N/A   Unknown
3:00 AM 51.8 °F 48.2 °F 88% 29.71 in 6.2 mi WNW 4.6 mph - N/A   Unknown
3:30 AM 51.8 °F 48.2 °F 88% 29.71 in 6.2 mi NNW 4.6 mph - N/A   Unknown
4:00 AM 51.8 °F 48.2 °F 88% 29.71 in 6.2 mi North 3.5 mph - N/A   Mostly Cloudy
4:30 AM 53.6 °F 50.0 °F 88% 29.71 in 6.2 mi NNW 3.5 mph - N/A   Overcast
5:00 AM 53.6 °F 50.0 °F 88% 29.71 in 6.2 mi NNW 3.5 mph - N/A   Overcast
5:30 AM 53.6 °F 50.0 °F 88% 29.71 in 6.2 mi NNW 3.5 mph - N/A   Overcast
6:00 AM 55.4 °F 50.0 °F 82% 29.74 in 6.2 mi North 3.5 mph - N/A   Overcast
6:30 AM 55.4 °F 50.0 °F 82% 29.74 in 6.2 mi North 3.5 mph - N/A   Overcast
7:00 AM 55.4 °F 50.0 °F 82% 29.74 in 6.2 mi NE 5.8 mph - N/A   Overcast
7:30 AM 57.2 °F 50.0 °F 77% 29.77 in 6.2 mi ENE 9.2 mph - N/A   Overcast
8:00 AM 57.2 °F 48.2 °F 72% 29.77 in 6.2 mi ENE 11.5 mph - N/A   Overcast
8:30 AM 59.0 °F 50.0 °F 72% 29.77 in 6.2 mi ENE 12.7 mph - N/A   Overcast
9:00 AM 59.0 °F 48.2 °F 67% 29.80 in 6.2 mi ENE 12.7 mph - N/A   Overcast
9:30 AM 59.0 °F 48.2 °F 67% 29.80 in 6.2 mi ENE 12.7 mph - N/A   Overcast
10:00 AM 60.8 °F 48.2 °F 63% 29.80 in 6.2 mi ENE 15.0 mph - N/A   Overcast
10:30 AM 60.8 °F 48.2 °F 63% 29.80 in 6.2 mi ENE 16.1 mph - N/A   Overcast
11:00 AM 60.8 °F 48.2 °F 63% 29.80 in 6.2 mi ENE 16.1 mph - N/A   Overcast
11:30 AM 62.6 °F 48.2 °F 59% 29.80 in 6.2 mi ENE 16.1 mph - N/A   Overcast
12:00 PM 62.6 °F 48.2 °F 59% 29.80 in 6.2 mi ENE 16.1 mph - N/A   Overcast
12:30 PM 62.6 °F 48.2 °F 59% 29.80 in 6.2 mi ENE 18.4 mph - N/A   Overcast
1:00 PM 62.6 °F 48.2 °F 59% 29.80 in 6.2 mi ENE 17.3 mph - N/A   Overcast
1:30 PM 62.6 °F 50.0 °F 63% 29.80 in 6.2 mi ENE 17.3 mph - N/A   Mostly Cloudy
2:00 PM 60.8 °F 48.2 °F 63% 29.80 in 6.2 mi ENE 17.3 mph - N/A   Overcast
2:30 PM 62.6 °F 50.0 °F 63% 29.80 in 6.2 mi ENE 17.3 mph - N/A   Mostly Cloudy
3:00 PM 62.6 °F 50.0 °F 63% 29.77 in 6.2 mi ENE 19.6 mph - N/A   Overcast
3:30 PM 62.6 °F 50.0 °F 63% 29.77 in 6.2 mi ENE 18.4 mph - N/A   Mostly Cloudy
4:00 PM 62.6 °F 48.2 °F 59% 29.77 in 6.2 mi ENE 19.6 mph - N/A   Overcast
4:30 PM 60.8 °F 50.0 °F 68% 29.77 in 6.2 mi East 18.4 mph - N/A   Overcast
5:00 PM 60.8 °F 48.2 °F 63% 29.77 in 6.2 mi ENE 18.4 mph - N/A   Overcast
5:30 PM 60.8 °F 50.0 °F 68% 29.77 in 6.2 mi ENE 19.6 mph - N/A   Overcast
6:00 PM 60.8 °F 50.0 °F 68% 29.77 in 6.2 mi East 19.6 mph - N/A   Overcast
6:30 PM 59.0 °F 50.0 °F 72% 29.77 in 6.2 mi ENE 19.6 mph - N/A   Overcast
7:00 PM 59.0 °F 50.0 °F 72% 29.77 in 6.2 mi East 18.4 mph - N/A   Overcast
7:30 PM 59.0 °F 50.0 °F 72% 29.77 in 6.2 mi ENE 15.0 mph - N/A   Overcast
8:00 PM 55.4 °F 53.6 °F 94% 29.77 in - East 17.3 mph - N/A Rain Light Rain
8:30 PM 55.4 °F 53.6 °F 94% 29.77 in 1.5 mi East 15.0 mph - N/A Rain Light Rain Showers
9:00 PM 55.4 °F 55.4 °F 100% 29.77 in 1.6 mi East 19.6 mph - N/A   Heavy Drizzle
9:30 PM 55.4 °F 55.4 °F 100% 29.77 in 1.4 mi East 18.4 mph - N/A   Heavy Drizzle
10:00 PM 55.4 °F 55.4 °F 100% 29.77 in 1.3 mi East 17.3 mph - N/A Rain Light Rain
10:30 PM 55.4 °F 55.4 °F 100% 29.77 in 1.5 mi East 16.1 mph - N/A   Heavy Drizzle
11:00 PM 55.4 °F 55.4 °F 100% 29.77 in 1.7 mi East 16.1 mph - N/A   Heavy Drizzle
11:30 PM 55.4 °F 55.4 °F 100% 29.77 in 2.5 mi East 13.8 mph - N/A   Light Drizzle